Vorticity
10 8 7 6 6 5 6 6 5 5 5 5 7 8 11 13 14 14 13 11 10 9 7 6 4 3 5 8 6 1 0 0 3 6 10 14 16 16 11 16 16 7 12 12 4 3 4 5 5 4 9 5 -3 2 4 3 3 5 5 -2 1 6 6 8 2 3 8 8 5 3 5 8 11 6 4 9 9 9 9 7 7 8 8 7 11 13 14 11
12 12 11 10 9 7 6 6 6 6 5 5 5 5 6 8 11 13 15 15 13 11 9 8 6 5 4 6 8 5 1 -2 1 6 8 7 8 18 15 12 17 7 9 13 3 2 4 6 5 3 9 8 3 3 2 4 4 4 3 -5 2 10 8 6 2 3 6 8 7 5 6 6 10 8 7 11 10 11 12 10 9 10 10 8 9 14 19 13
9 10 11 12 12 11 10 8 7 6 6 6 5 6 6 5 7 8 12 15 16 15 12 10 8 7 4 4 7 7 4 -2 -2 4 8 6 2 16 17 10 16 8 5 9 3 2 4 6 4 4 8 4 5 5 2 5 3 2 -2 -6 7 11 4 3 2 4 7 10 7 7 9 7 10 11 10 12 9 9 8 8 8 8 8 7 9 13 17 14
7 8 9 9 11 11 12 12 10 9 8 7 6 6 6 6 6 6 8 9 13 17 17 14 9 9 7 4 5 7 6 0 -1 2 7 7 1 10 17 10 15 9 -0 6 7 3 3 7 6 5 7 3 5 5 3 4 2 2 -3 -2 12 10 4 5 3 6 10 10 7 8 8 8 11 11 10 10 9 8 6 8 8 7 8 7 8 11 13 12
3 4 6 7 8 9 10 11 12 12 11 10 9 7 7 6 6 6 7 7 8 12 16 19 14 10 9 7 5 4 6 3 0 2 4 6 2 7 13 8 16 13 -2 4 10 5 5 7 6 6 5 5 8 6 4 2 2 3 -1 2 12 7 3 8 7 8 10 9 8 7 7 11 10 6 8 6 2 6 7 9 7 6 10 9 10 11 12 10
2 2 3 4 6 7 8 9 9 11 12 12 11 10 10 8 7 6 6 7 7 7 10 16 19 16 10 8 7 4 4 2 0 2 3 6 4 6 10 8 15 15 2 4 7 7 9 5 6 9 7 8 9 6 2 1 0 -1 -0 4 10 6 2 9 10 7 8 6 6 8 9 11 6 3 6 5 5 10 11 9 6 5 7 9 12 13 12 10
4 3 2 2 3 4 6 7 8 8 9 10 11 11 11 10 10 9 7 7 6 7 7 9 16 20 17 11 8 7 2 -0 4 4 0 5 5 3 9 9 11 15 10 6 5 7 8 5 6 7 9 9 7 6 3 1 -3 -6 2 6 6 4 3 9 9 6 6 3 6 10 8 6 4 6 6 7 9 8 7 8 6 4 4 7 11 13 12 11
7 5 4 4 3 3 3 5 6 8 8 8 9 9 10 10 10 10 10 9 8 7 7 7 9 16 22 17 10 9 5 2 6 5 -1 3 6 2 6 9 10 14 14 9 6 6 6 6 5 6 12 12 6 6 5 4 2 -2 2 7 8 9 8 8 5 6 6 5 9 7 4 3 3 5 5 5 7 6 6 6 5 3 3 5 11 13 12 10
9 8 7 6 5 4 3 4 4 6 7 8 8 8 8 8 7 8 8 9 9 9 9 9 7 9 16 21 17 10 8 7 4 4 3 3 5 5 4 7 10 13 13 9 5 5 9 7 5 9 12 9 4 5 4 2 6 7 3 8 13 11 8 5 5 8 6 7 10 6 3 4 4 5 3 2 3 5 7 6 5 5 4 3 7 13 14 10
8 9 9 8 7 6 5 4 4 4 5 6 7 8 7 7 6 6 6 7 7 8 9 10 10 9 9 15 20 16 13 11 6 5 4 3 4 5 4 5 8 12 11 9 6 8 13 6 2 8 8 6 6 6 4 -3 4 13 7 10 13 8 5 2 7 10 6 9 8 3 3 4 6 4 2 3 4 5 5 7 7 5 5 4 4 10 15 12
7 8 9 10 9 8 7 6 5 4 4 4 5 7 8 7 7 7 7 7 6 6 7 9 11 11 9 9 14 21 22 13 8 7 4 4 4 3 4 5 7 10 10 11 11 7 6 2 -1 5 8 8 10 8 4 -2 3 9 4 8 10 6 3 0 7 10 7 11 7 3 3 4 7 6 5 8 9 8 5 5 7 6 5 5 5 7 11 13
8 8 8 9 10 11 10 8 7 5 4 4 4 5 6 7 7 7 7 7 8 8 7 7 8 10 12 10 8 17 26 19 10 7 5 4 4 4 3 4 7 8 10 13 9 2 2 3 1 5 9 11 13 9 3 0 1 2 1 5 10 8 2 -1 7 11 7 8 5 4 3 2 4 6 8 9 11 14 9 5 7 8 6 5 5 5 8 11
8 9 9 8 9 10 11 11 9 8 6 4 4 4 5 6 6 6 7 7 8 9 9 8 7 8 10 12 11 11 20 22 15 9 7 5 4 4 3 3 6 6 10 10 5 4 3 6 4 3 9 13 10 5 5 4 -0 3 2 1 11 12 5 3 7 10 4 4 6 4 4 5 5 6 7 8 13 15 11 8 10 10 7 7 5 4 6 7
6 6 8 8 9 8 9 10 11 10 9 7 5 5 5 4 4 6 6 7 7 8 9 9 8 8 8 11 13 12 13 18 20 16 9 7 6 5 4 3 4 5 8 5 5 8 4 4 6 4 9 11 8 5 7 6 -1 5 5 1 10 8 8 11 9 10 6 5 10 4 4 7 6 8 7 8 14 12 9 8 11 12 10 9 8 5 6 6
3 4 4 6 7 8 8 8 9 10 10 10 8 6 6 4 4 5 5 5 7 7 8 9 9 8 8 8 9 13 13 11 18 23 16 9 6 5 5 4 3 4 5 3 5 11 5 2 7 10 8 3 8 8 4 4 0 3 4 5 6 -1 10 17 6 9 9 8 10 4 4 5 4 9 7 7 9 5 5 7 9 11 11 10 10 8 7 6
2 3 4 5 5 7 8 7 7 7 9 10 10 9 7 6 5 4 5 5 5 6 6 8 9 8 8 9 9 11 13 12 13 20 24 18 9 6 6 6 4 3 6 3 4 9 5 4 7 9 5 2 10 10 3 2 0 2 -0 1 5 -1 13 21 5 3 7 9 8 2 4 3 2 6 5 4 3 -1 1 4 6 8 9 9 10 9 8 9
3 3 4 5 5 6 7 8 7 6 7 8 10 10 9 8 7 5 5 5 5 6 6 6 7 7 8 8 9 9 11 14 12 14 22 24 17 8 6 7 5 4 6 3 2 5 6 9 7 3 3 6 11 9 5 1 -0 6 -1 -4 7 7 12 16 6 2 4 6 5 1 3 7 8 7 4 3 1 0 1 2 4 4 6 6 7 8 8 9
3 4 4 4 5 5 7 8 8 7 6 6 7 9 10 9 8 7 5 5 6 6 5 6 6 5 6 6 6 8 9 11 13 12 15 22 23 14 8 8 6 5 5 5 3 2 6 10 9 6 4 4 8 8 10 10 6 9 4 -0 8 12 12 13 8 4 1 2 3 1 3 6 8 7 4 3 3 3 3 3 4 4 5 5 5 5 5 6
4 4 3 3 4 4 6 8 9 10 7 6 6 6 9 9 9 8 7 5 5 6 5 6 5 4 5 6 4 6 8 10 13 14 12 16 22 21 14 7 7 6 4 5 2 0 4 4 5 8 7 8 8 9 19 20 6 5 9 5 5 8 10 11 7 4 0 2 4 2 2 1 -4 1 5 2 2 4 5 6 5 5 6 6 6 6 5 5
4 4 4 4 4 3 4 7 8 9 10 7 6 5 6 8 9 8 8 6 5 6 6 5 4 4 6 6 4 4 6 9 11 14 15 13 15 22 20 11 8 6 3 3 2 2 1 -1 2 5 10 14 7 8 22 17 -1 -0 5 3 7 7 7 11 10 9 6 3 5 3 2 3 -2 3 7 2 3 3 4 5 5 6 6 6 6 6 6 6
3 4 4 5 6 4 3 5 6 7 10 9 6 6 5 6 8 8 8 8 8 7 6 7 4 3 7 5 4 5 4 6 8 11 18 17 13 16 21 20 11 6 6 4 3 3 -2 -3 5 8 9 9 6 7 16 14 1 -2 1 6 11 1 4 17 8 4 7 1 6 10 4 7 5 2 3 2 3 2 1 2 2 5 8 7 5 4 5 5
4 4 4 5 6 5 3 5 6 5 8 10 8 7 6 6 6 8 8 8 12 9 6 8 5 4 8 6 6 6 3 6 7 7 12 18 19 15 17 22 18 10 7 5 2 -1 -2 -1 4 11 9 6 11 11 10 15 10 1 1 8 10 -3 6 27 12 1 9 1 0 7 4 4 1 -2 3 5 5 4 4 4 2 3 6 8 7 5 5 6
6 6 5 6 7 7 5 6 6 4 6 9 9 7 6 6 5 7 8 6 10 11 7 8 7 4 6 6 6 7 6 7 6 4 5 12 21 20 15 17 21 17 8 6 5 1 2 2 2 10 8 3 9 8 6 9 9 9 4 3 8 1 9 28 17 1 0 -3 -1 4 0 -2 2 3 2 -0 2 5 5 4 4 3 2 3 6 7 5 6
7 7 7 7 8 8 7 8 7 4 4 7 8 8 6 6 5 6 8 6 8 11 8 7 7 4 5 8 8 7 7 6 6 6 4 7 15 22 23 17 18 19 12 8 7 6 6 2 3 8 5 5 5 2 5 6 10 15 8 6 2 -4 12 21 9 1 -4 -7 -1 3 -1 -2 4 6 3 2 1 2 4 4 5 3 3 3 4 7 6 4
5 6 7 7 8 9 8 8 9 7 5 5 7 9 7 5 5 5 7 6 7 11 10 7 9 8 6 8 8 7 7 6 8 7 2 2 4 10 22 22 16 17 18 14 7 8 9 2 3 4 5 11 5 -0 4 5 11 12 11 14 -12 -20 18 20 2 10 9 -2 -4 -2 -1 -2 4 5 1 3 2 -0 0 2 6 4 3 6 4 5 7 5
4 4 6 7 7 9 8 7 9 9 8 5 5 8 8 7 6 4 5 5 4 9 13 10 8 8 6 6 7 7 6 7 9 8 4 5 5 5 13 22 22 17 19 20 10 7 7 4 4 3 8 12 2 1 3 2 9 8 11 15 -12 -18 12 10 3 14 11 3 2 2 -2 -8 4 12 2 0 4 4 1 -4 1 5 2 4 6 6 6 6
5 3 4 5 6 7 8 8 7 8 8 7 6 6 7 9 8 5 4 6 4 4 10 12 10 10 9 7 7 6 7 7 8 9 8 7 8 8 7 14 22 19 16 18 16 10 7 7 4 3 12 10 -1 3 4 2 9 8 7 14 7 -0 -0 -3 -1 4 7 9 4 6 4 -6 -1 6 5 12 7 -4 -1 -4 -7 0 3 2 4 6 7 7
7 5 4 4 6 6 7 8 6 6 8 7 7 6 7 8 8 7 6 7 7 3 4 8 8 8 8 8 8 9 9 8 6 6 8 7 5 7 7 10 19 20 16 18 22 18 11 9 6 6 12 5 -1 6 5 2 5 5 6 12 15 5 -0 1 -9 -9 6 8 3 6 7 3 4 2 1 8 3 -10 -4 2 -0 5 7 5 5 5 7 8
9 8 6 5 5 5 6 8 6 5 7 7 7 7 7 7 6 8 7 5 8 7 5 5 4 5 7 8 10 11 9 8 7 2 3 7 7 7 8 8 13 17 18 21 23 18 13 12 7 7 12 5 1 6 5 2 1 3 8 13 14 3 2 5 -9 -7 3 4 13 13 6 6 2 4 4 -4 -2 4 8 10 9 9 8 5 6 2 2 6
8 9 9 7 7 6 5 6 6 6 6 6 6 6 6 8 7 7 6 5 7 7 6 5 4 3 4 4 7 11 10 8 8 3 -0 4 7 7 6 6 9 10 14 22 20 13 14 18 9 4 11 9 3 4 4 3 1 4 9 12 11 2 1 2 -4 -3 -7 -1 17 5 3 19 3 -2 8 -3 -1 11 11 10 6 5 7 4 2 2 1 3
7 8 8 8 8 7 6 6 5 5 6 5 6 6 6 7 7 7 5 6 8 7 7 7 4 3 3 4 6 9 11 9 8 6 3 3 5 7 7 8 11 8 10 20 23 15 13 22 17 5 8 11 8 5 2 4 4 2 4 4 0 -0 2 2 6 5 -16 -11 14 -6 -14 9 2 -1 7 -5 2 17 10 4 7 10 12 6 3 5 4 1
6 7 7 8 8 8 7 6 5 5 5 5 6 6 5 5 7 7 5 7 7 6 8 7 4 5 5 4 4 6 9 9 8 9 8 3 2 5 7 7 8 9 10 16 25 22 12 22 26 11 6 9 10 7 1 6 7 -3 -2 1 -6 -2 6 -2 3 14 -11 -23 3 3 -5 9 3 2 11 1 4 18 12 6 14 13 7 6 8 6 3 -1
6 7 8 7 7 8 8 7 7 6 4 4 6 5 5 5 6 6 5 6 6 5 6 6 4 5 5 3 3 4 8 10 8 9 8 5 2 1 4 6 6 10 11 8 17 23 15 19 26 18 8 6 10 10 5 7 7 -1 3 9 -2 -2 14 13 2 12 9 -6 -1 -4 -9 7 7 -2 6 11 13 17 13 14 13 3 4 13 12 6 4 2
6 7 8 8 7 7 8 7 7 8 6 4 4 4 5 5 3 2 3 4 7 8 8 6 4 5 4 3 4 5 7 9 10 9 7 6 4 2 3 7 8 10 13 9 10 17 17 17 24 25 17 9 9 12 11 9 4 0 1 7 3 -9 0 18 10 6 13 10 12 12 -1 -4 1 4 4 4 13 16 11 13 7 1 12 19 10 4 2 2
7 7 8 9 8 7 7 8 8 8 8 6 4 5 5 4 2 3 4 3 5 8 9 7 5 5 5 4 5 5 5 6 8 9 10 7 6 6 3 4 8 10 12 13 10 11 16 19 21 26 24 15 10 12 16 11 3 2 -1 -1 6 -7 -18 -2 8 12 18 16 12 12 15 14 1 -0 9 11 17 19 13 10 4 6 17 9 1 7 5 1
9 8 8 10 10 9 7 8 8 8 9 7 6 6 5 4 4 5 5 3 3 6 8 8 6 6 5 4 5 6 5 7 7 6 10 9 8 8 3 2 7 10 9 12 11 10 17 20 16 21 25 18 13 12 15 13 5 4 1 -3 5 3 -15 -18 -5 4 5 16 25 9 16 45 29 3 16 27 21 14 8 6 4 9 14 1 -1 18 27 16
10 8 8 8 10 11 8 7 8 8 9 8 7 7 5 5 6 7 6 5 5 6 7 8 8 7 5 4 7 6 5 8 8 6 8 8 7 7 6 5 7 11 13 14 13 12 17 20 14 19 27 20 15 16 14 14 11 5 -0 -4 1 6 -9 -24 -7 13 -5 -14 8 7 2 33 42 26 26 22 8 4 1 1 5 7 7 1 -4 8 22 15
11 10 9 8 9 10 9 8 7 7 7 7 6 6 5 5 6 6 8 10 9 7 6 7 7 7 5 6 8 6 5 9 9 8 8 8 10 9 8 9 7 9 13 14 14 12 16 20 13 17 29 22 16 17 13 12 12 7 3 -1 -1 2 -3 -18 -18 6 14 3 0 -8 -16 7 29 26 22 18 11 12 12 3 -2 3 9 5 -5 -8 -2 -0
12 13 13 12 11 10 10 9 8 8 7 6 6 6 6 7 7 6 9 11 11 9 8 8 8 8 6 5 8 7 7 9 7 6 7 8 11 11 7 8 9 9 9 12 15 11 14 21 17 17 26 24 17 16 14 12 12 14 8 0 -1 -1 1 5 -10 -25 -15 9 23 13 -6 -2 13 12 9 17 16 8 5 1 -2 8 18 11 -0 -2 1 1
13 16 16 16 15 12 12 10 7 8 8 8 9 8 7 8 7 7 8 11 12 10 10 8 7 9 7 3 6 8 6 6 6 8 7 5 7 10 9 9 10 10 8 10 13 11 14 20 19 19 23 25 19 13 14 13 13 17 11 2 5 3 -8 -5 7 7 -8 -20 -11 11 15 1 4 24 22 11 15 7 -16 -20 2 20 18 7 2 1 2 5
17 18 15 17 18 15 14 13 10 10 9 8 8 8 8 8 7 9 9 9 10 9 9 9 7 8 9 5 5 8 9 8 8 10 8 6 9 11 10 7 8 11 10 9 11 13 15 19 20 18 18 24 23 17 19 17 14 18 14 6 3 5 3 -11 -14 13 32 14 -19 -18 11 5 -7 33 50 16 10 14 -12 -21 3 15 7 7 15 11 5 6
20 19 16 18 19 16 15 16 14 12 11 9 8 9 11 9 8 11 12 10 10 10 9 9 8 8 8 7 5 6 10 9 7 8 7 7 9 8 7 5 8 12 11 11 15 18 20 20 19 13 9 18 26 24 21 16 15 19 19 19 7 -3 4 -0 -17 -19 -3 26 21 -13 -6 5 -12 16 53 32 6 -2 -10 -3 4 -2 -1 12 20 12 2 2
21 20 18 19 20 17 16 16 15 14 14 14 10 8 9 9 9 11 12 11 11 12 10 8 8 8 8 8 7 7 12 11 9 9 7 7 8 7 8 8 9 11 10 12 15 16 16 12 14 17 12 14 25 33 34 26 19 17 16 23 22 11 2 -11 -11 -11 -34 -15 23 7 -6 10 9 10 20 19 20 10 -2 3 5 -1 1 7 7 2 -0 1
19 22 20 17 18 17 15 15 15 15 15 14 12 9 9 9 11 12 13 14 12 11 12 10 9 8 6 6 7 8 11 11 11 11 9 10 11 9 10 10 11 10 8 10 6 3 9 7 9 20 18 11 13 17 21 22 17 9 6 11 13 17 18 -3 -10 2 -18 -29 -1 11 1 -3 -4 -2 -8 -8 15 22 12 10 9 4 2 3 5 3 3 2
21 24 21 18 19 17 14 15 16 17 17 17 15 14 15 15 15 15 15 15 13 11 12 12 11 9 7 6 6 7 9 11 11 10 8 8 9 10 11 8 9 6 1 2 -1 -1 11 12 3 7 9 7 7 3 4 11 17 14 6 10 11 9 14 12 3 5 -4 -21 -18 -8 -1 1 -3 -7 -12 -8 2 3 4 13 14 6 3 5 7 4 2 1
23 24 20 17 17 16 14 14 17 19 20 20 18 16 17 18 17 16 15 13 12 11 12 12 11 10 8 7 6 6 9 12 12 9 8 10 9 8 10 7 6 5 4 6 6 6 14 9 1 3 8 10 13 16 20 20 21 24 16 11 15 12 9 9 9 10 3 -6 -6 -16 -30 -13 18 24 12 7 4 -4 -4 6 10 8 6 3 1 3 8 9
20 21 20 17 13 13 15 15 16 19 20 19 20 19 18 18 18 17 15 14 12 11 12 11 12 11 9 9 11 10 10 12 12 10 10 11 7 5 8 9 6 6 8 9 7 9 10 4 3 9 10 11 10 12 24 27 21 24 28 24 23 21 17 8 4 12 7 -8 1 6 -20 -38 -24 3 24 25 10 3 6 5 4 3 2 3 2 3 9 12
17 16 16 17 13 11 17 20 19 20 22 22 22 20 18 20 22 19 16 14 12 11 11 11 11 11 8 8 10 11 11 12 12 12 13 11 8 7 10 10 7 6 6 5 4 7 8 4 7 9 7 11 12 7 13 22 21 19 18 20 22 24 26 16 3 10 11 -8 -12 7 18 0 -35 -43 -12 6 -7 -7 4 5 2 -1 -1 5 3 -2 2 5
19 18 15 16 13 7 11 23 26 21 20 22 24 23 20 19 19 17 15 13 11 10 11 11 13 13 11 10 11 11 12 13 12 13 13 10 10 11 11 8 7 7 5 5 6 6 7 9 8 6 5 10 13 11 11 11 14 19 17 11 8 14 27 31 21 14 14 11 5 -4 -1 11 3 -11 -7 -6 -17 -15 -3 4 6 2 2 8 2 -5 2 5
19 21 20 20 20 9 -0 10 26 27 21 19 22 23 22 18 16 15 15 12 10 11 12 12 14 14 11 9 10 11 11 11 11 10 9 10 11 11 10 6 6 7 4 5 7 4 5 10 9 6 6 8 8 11 17 15 10 11 18 21 14 7 12 23 30 28 18 11 14 8 -4 -5 2 8 9 3 -5 -5 -2 2 7 5 6 11 5 -1 7 9
23 22 22 22 25 22 9 3 14 26 27 22 20 20 19 18 17 17 17 13 10 13 15 12 10 10 7 6 8 10 8 6 7 6 6 11 13 12 10 7 6 4 0 1 5 5 5 6 7 9 8 6 7 7 9 16 20 16 15 22 23 14 6 6 14 26 30 22 15 15 15 9 2 1 5 7 9 12 8 1 4 12 13 9 3 2 8 6
28 24 24 24 22 24 22 14 9 15 24 25 23 20 17 18 19 18 17 14 11 12 15 14 12 11 12 12 11 10 7 5 7 9 11 15 16 14 11 10 11 7 -1 -3 1 5 8 6 4 8 7 4 7 9 8 15 23 20 14 16 20 18 14 9 2 3 12 18 19 16 13 13 13 11 9 7 6 10 12 7 9 16 15 7 4 7 10 6
Height
5898 5897 5897 5896 5896 5895 5894 5894 5894 5893 5893 5893 5892 5892 5892 5892 5892 5892 5893 5894 5895 5895 5896 5896 5897 5898 5899 5899 5899 5899 5898 5898 5899 5899 5899 5899 5899 5899 5900 5901 5901 5902 5903 5905 5907 5908 5909 5910 5910 5911 5911 5912 5913 5914 5914 5914 5914 5914 5914 5915 5916 5917 5917 5917 5917 5917 5916 5917 5917 5916 5915 5915 5915 5915 5915 5914 5914 5914 5914 5914 5914 5915 5915 5916 5916 5917 5917 5917
5897 5896 5896 5895 5895 5894 5894 5893 5893 5892 5892 5892 5892 5891 5891 5891 5891 5891 5891 5892 5893 5893 5894 5895 5895 5896 5897 5897 5898 5898 5897 5897 5898 5898 5898 5898 5899 5899 5899 5900 5901 5901 5903 5904 5906 5907 5908 5908 5909 5910 5911 5912 5913 5913 5914 5914 5914 5914 5914 5916 5917 5917 5917 5917 5917 5917 5917 5917 5917 5917 5915 5915 5915 5915 5915 5914 5914 5914 5914 5914 5914 5915 5915 5916 5916 5917 5917 5917
5896 5895 5895 5894 5893 5893 5892 5892 5892 5891 5891 5891 5891 5890 5890 5889 5889 5890 5890 5890 5890 5891 5892 5892 5893 5894 5895 5896 5896 5896 5896 5896 5896 5897 5898 5898 5898 5898 5899 5899 5900 5901 5901 5902 5904 5905 5906 5907 5908 5909 5910 5911 5912 5913 5914 5914 5914 5914 5914 5916 5917 5917 5917 5917 5917 5918 5918 5917 5917 5917 5916 5915 5915 5915 5915 5914 5914 5914 5914 5915 5914 5915 5915 5916 5916 5917 5918 5917
5895 5894 5894 5893 5892 5892 5891 5891 5890 5890 5890 5890 5890 5889 5889 5888 5888 5888 5888 5888 5889 5889 5890 5890 5891 5892 5893 5893 5894 5894 5894 5894 5895 5896 5897 5897 5897 5898 5898 5898 5898 5899 5900 5901 5903 5904 5906 5907 5908 5909 5911 5912 5912 5913 5914 5914 5915 5914 5915 5916 5917 5917 5917 5918 5918 5918 5918 5918 5917 5917 5916 5915 5915 5914 5915 5914 5914 5914 5914 5915 5915 5915 5915 5916 5916 5917 5918 5917
5894 5893 5893 5892 5892 5891 5890 5890 5889 5889 5889 5889 5889 5888 5888 5887 5887 5887 5887 5887 5887 5887 5888 5888 5889 5889 5890 5891 5892 5892 5892 5892 5893 5895 5896 5897 5896 5897 5897 5897 5897 5898 5899 5900 5902 5904 5905 5907 5908 5909 5911 5912 5913 5913 5914 5914 5915 5914 5914 5916 5916 5917 5917 5918 5918 5918 5918 5918 5918 5917 5916 5915 5915 5914 5914 5914 5914 5914 5915 5915 5915 5915 5916 5916 5916 5916 5917 5917
5892 5892 5892 5891 5890 5890 5889 5889 5888 5888 5888 5887 5887 5887 5887 5886 5886 5885 5885 5885 5885 5886 5886 5886 5887 5887 5888 5889 5889 5890 5890 5889 5891 5893 5895 5896 5896 5896 5896 5896 5896 5897 5898 5899 5901 5903 5905 5906 5908 5909 5911 5912 5912 5913 5914 5914 5914 5914 5915 5916 5916 5917 5917 5917 5918 5918 5918 5918 5918 5918 5917 5915 5915 5914 5914 5914 5914 5915 5915 5915 5915 5915 5916 5916 5915 5915 5916 5916
5891 5890 5890 5890 5889 5889 5888 5888 5887 5887 5887 5886 5886 5886 5885 5885 5885 5884 5884 5883 5884 5884 5884 5885 5885 5885 5886 5887 5887 5888 5887 5887 5890 5892 5893 5894 5895 5895 5895 5895 5895 5896 5897 5898 5900 5903 5904 5906 5907 5909 5910 5911 5912 5912 5913 5914 5914 5914 5915 5916 5916 5916 5917 5917 5918 5918 5917 5918 5918 5918 5917 5916 5915 5915 5915 5915 5914 5915 5915 5915 5915 5914 5915 5915 5915 5915 5915 5916
5889 5889 5888 5888 5887 5887 5887 5886 5886 5886 5885 5885 5885 5884 5884 5884 5883 5883 5882 5882 5882 5882 5883 5883 5883 5884 5884 5884 5885 5885 5886 5886 5888 5889 5890 5893 5894 5894 5895 5895 5895 5896 5897 5898 5899 5901 5903 5905 5907 5907 5909 5910 5911 5912 5912 5913 5913 5914 5914 5915 5916 5916 5916 5916 5917 5917 5917 5917 5917 5917 5917 5916 5916 5916 5916 5915 5915 5915 5915 5915 5915 5914 5915 5915 5915 5915 5915 5916
5888 5887 5887 5886 5886 5885 5885 5885 5885 5884 5884 5884 5884 5884 5883 5882 5882 5882 5881 5881 5881 5881 5881 5881 5882 5882 5882 5882 5882 5882 5884 5886 5886 5887 5888 5891 5893 5893 5894 5894 5894 5895 5896 5897 5897 5899 5901 5904 5905 5906 5907 5908 5909 5910 5911 5912 5913 5913 5914 5915 5915 5916 5916 5916 5916 5917 5917 5917 5917 5917 5917 5917 5916 5916 5916 5916 5915 5915 5915 5915 5915 5915 5915 5915 5916 5916 5916 5916
5886 5885 5885 5884 5884 5884 5883 5883 5883 5883 5883 5883 5882 5882 5882 5881 5881 5880 5880 5880 5880 5879 5879 5880 5880 5881 5880 5880 5880 5880 5883 5885 5884 5885 5886 5889 5891 5892 5893 5893 5894 5894 5895 5895 5896 5899 5901 5903 5904 5904 5905 5906 5908 5909 5910 5911 5912 5912 5913 5914 5915 5915 5915 5915 5916 5917 5917 5917 5917 5917 5917 5917 5916 5916 5916 5916 5916 5915 5915 5915 5915 5915 5915 5915 5916 5916 5917 5917
5884 5884 5883 5883 5882 5882 5881 5881 5881 5881 5881 5881 5881 5881 5880 5880 5880 5879 5879 5879 5879 5878 5878 5878 5878 5879 5878 5878 5878 5879 5882 5883 5882 5883 5884 5886 5890 5891 5892 5892 5892 5893 5893 5894 5896 5898 5899 5900 5901 5902 5904 5905 5906 5908 5909 5910 5911 5912 5913 5914 5914 5915 5915 5915 5915 5917 5917 5917 5917 5917 5917 5917 5917 5917 5916 5916 5916 5915 5916 5916 5916 5916 5915 5916 5916 5917 5917 5918
5882 5882 5881 5881 5880 5880 5880 5879 5879 5879 5879 5879 5879 5879 5879 5879 5878 5878 5878 5877 5877 5877 5877 5877 5877 5877 5876 5876 5877 5879 5879 5879 5879 5880 5881 5883 5887 5889 5890 5891 5891 5891 5892 5893 5894 5895 5896 5897 5898 5901 5903 5904 5906 5907 5908 5910 5911 5911 5912 5913 5914 5914 5915 5915 5915 5916 5917 5917 5917 5917 5918 5918 5917 5917 5917 5916 5916 5916 5916 5916 5916 5916 5916 5916 5917 5917 5918 5919
5880 5880 5879 5879 5878 5878 5878 5877 5877 5877 5877 5877 5877 5877 5877 5877 5877 5877 5876 5876 5876 5876 5875 5875 5875 5875 5875 5874 5876 5877 5877 5877 5876 5877 5878 5881 5883 5886 5887 5889 5889 5890 5890 5891 5892 5893 5894 5895 5897 5899 5902 5903 5904 5905 5907 5909 5910 5911 5911 5912 5913 5914 5915 5915 5915 5916 5917 5917 5917 5917 5917 5918 5918 5917 5917 5916 5916 5916 5916 5917 5917 5917 5916 5916 5917 5918 5918 5919
5879 5878 5877 5877 5876 5876 5876 5875 5875 5875 5875 5875 5875 5875 5875 5875 5875 5875 5875 5875 5874 5874 5874 5874 5873 5874 5873 5872 5874 5875 5875 5875 5874 5875 5876 5878 5880 5883 5885 5886 5887 5888 5888 5889 5890 5891 5892 5893 5895 5897 5900 5901 5902 5904 5906 5908 5909 5910 5911 5911 5912 5914 5916 5915 5915 5916 5917 5917 5917 5917 5917 5918 5918 5918 5917 5917 5916 5916 5916 5916 5917 5917 5917 5917 5917 5918 5918 5919
5876 5876 5875 5874 5874 5874 5873 5873 5873 5872 5872 5873 5873 5873 5873 5873 5873 5873 5873 5873 5873 5873 5873 5872 5872 5872 5871 5870 5872 5873 5873 5873 5873 5873 5875 5876 5878 5880 5882 5884 5885 5886 5886 5887 5889 5890 5890 5891 5893 5896 5899 5900 5901 5903 5905 5907 5908 5909 5910 5911 5912 5914 5915 5915 5914 5915 5917 5917 5917 5916 5917 5918 5918 5917 5917 5917 5917 5917 5916 5916 5917 5917 5917 5918 5918 5918 5918 5919
5874 5873 5873 5872 5871 5871 5871 5871 5870 5870 5870 5870 5870 5870 5871 5871 5871 5871 5871 5871 5870 5871 5871 5871 5870 5870 5869 5868 5869 5871 5872 5872 5871 5872 5873 5874 5875 5877 5879 5881 5883 5884 5884 5886 5888 5889 5889 5890 5892 5895 5896 5897 5899 5902 5904 5905 5906 5908 5909 5912 5915 5915 5914 5915 5914 5915 5916 5916 5916 5916 5916 5917 5917 5917 5917 5917 5917 5917 5916 5916 5917 5917 5917 5918 5918 5918 5919 5919
5871 5870 5870 5869 5869 5869 5868 5868 5868 5867 5867 5867 5867 5868 5868 5868 5869 5869 5869 5869 5869 5868 5869 5869 5868 5868 5868 5867 5867 5869 5870 5870 5870 5870 5871 5872 5873 5875 5877 5878 5880 5881 5882 5884 5886 5887 5888 5889 5891 5893 5894 5895 5898 5900 5901 5902 5905 5907 5908 5911 5915 5916 5915 5915 5915 5914 5915 5916 5916 5916 5916 5916 5916 5916 5916 5916 5917 5917 5916 5916 5916 5917 5917 5918 5918 5919 5919 5920
5868 5867 5867 5866 5865 5866 5866 5865 5865 5865 5865 5865 5865 5865 5865 5865 5866 5866 5866 5867 5866 5866 5866 5866 5866 5866 5866 5865 5865 5867 5868 5868 5867 5867 5868 5869 5870 5871 5873 5875 5877 5879 5880 5882 5884 5886 5886 5887 5889 5891 5892 5893 5895 5897 5898 5901 5904 5906 5908 5910 5913 5914 5914 5915 5914 5914 5914 5915 5915 5915 5915 5915 5916 5915 5914 5914 5916 5916 5916 5916 5916 5917 5917 5917 5918 5919 5919 5920
5865 5864 5864 5863 5862 5862 5862 5862 5862 5862 5862 5862 5862 5862 5862 5862 5863 5863 5864 5864 5864 5864 5864 5864 5864 5864 5864 5863 5863 5864 5866 5866 5865 5865 5866 5867 5867 5868 5870 5872 5874 5876 5878 5879 5881 5883 5885 5885 5886 5887 5888 5890 5893 5896 5898 5901 5904 5907 5908 5909 5912 5913 5913 5912 5912 5913 5912 5913 5915 5915 5915 5915 5915 5914 5912 5914 5915 5916 5916 5916 5916 5916 5917 5917 5918 5919 5919 5920
5862 5861 5861 5860 5859 5859 5859 5859 5859 5859 5859 5859 5859 5858 5859 5859 5859 5860 5861 5861 5861 5861 5861 5861 5862 5862 5861 5861 5862 5862 5862 5863 5862 5862 5863 5864 5865 5866 5867 5869 5872 5873 5875 5877 5878 5881 5883 5883 5884 5885 5887 5890 5893 5895 5898 5900 5902 5906 5908 5908 5910 5912 5914 5913 5911 5911 5911 5912 5913 5914 5914 5914 5914 5914 5913 5914 5915 5915 5916 5916 5916 5916 5916 5917 5918 5919 5919 5920
5858 5858 5857 5856 5855 5855 5856 5855 5855 5856 5855 5855 5855 5855 5855 5855 5855 5856 5857 5857 5858 5858 5858 5858 5859 5859 5859 5859 5859 5859 5860 5860 5860 5859 5860 5862 5862 5863 5864 5866 5868 5870 5873 5875 5876 5877 5878 5880 5882 5885 5887 5890 5892 5894 5896 5897 5899 5902 5905 5908 5908 5910 5913 5912 5909 5909 5909 5910 5912 5912 5913 5913 5913 5913 5914 5914 5914 5914 5915 5915 5915 5916 5916 5917 5917 5918 5919 5919
5854 5854 5853 5853 5852 5852 5852 5852 5852 5852 5852 5852 5852 5851 5852 5852 5852 5853 5854 5854 5854 5855 5856 5856 5856 5856 5856 5856 5857 5857 5857 5857 5857 5858 5858 5859 5859 5860 5861 5863 5865 5868 5870 5871 5872 5873 5874 5878 5882 5884 5886 5888 5889 5891 5893 5895 5897 5898 5901 5905 5907 5909 5910 5908 5906 5908 5908 5908 5910 5911 5911 5912 5912 5912 5913 5913 5913 5914 5914 5915 5915 5915 5915 5916 5917 5918 5918 5919
5850 5850 5849 5849 5848 5848 5848 5848 5848 5849 5849 5848 5848 5848 5848 5848 5848 5849 5850 5850 5850 5851 5852 5853 5853 5853 5853 5853 5854 5854 5854 5854 5854 5855 5855 5856 5856 5857 5858 5859 5861 5864 5865 5866 5869 5871 5872 5877 5881 5882 5883 5885 5886 5888 5890 5892 5894 5894 5897 5900 5904 5907 5906 5905 5905 5907 5908 5907 5908 5909 5910 5910 5911 5911 5912 5912 5912 5913 5914 5914 5915 5915 5915 5915 5916 5917 5918 5918
5845 5845 5845 5844 5843 5843 5844 5844 5844 5845 5845 5845 5844 5845 5845 5845 5845 5845 5846 5847 5847 5847 5848 5849 5850 5850 5849 5850 5851 5851 5852 5852 5851 5853 5853 5853 5853 5854 5855 5856 5857 5858 5860 5863 5866 5868 5870 5875 5879 5879 5880 5882 5884 5885 5887 5889 5890 5892 5894 5896 5900 5904 5904 5904 5904 5904 5905 5905 5906 5909 5909 5909 5910 5911 5911 5910 5910 5911 5913 5913 5914 5914 5914 5915 5915 5916 5916 5917
5840 5840 5840 5839 5839 5838 5839 5839 5839 5840 5840 5840 5841 5840 5841 5841 5841 5841 5841 5842 5843 5843 5844 5845 5845 5846 5846 5847 5848 5848 5848 5848 5849 5850 5851 5850 5850 5851 5852 5852 5853 5854 5857 5860 5862 5864 5866 5870 5874 5875 5876 5879 5881 5882 5883 5886 5889 5890 5892 5893 5896 5901 5903 5902 5902 5902 5903 5903 5905 5907 5907 5907 5908 5909 5910 5909 5909 5909 5910 5912 5912 5913 5913 5914 5914 5915 5915 5916
5835 5835 5835 5835 5834 5833 5833 5834 5835 5835 5836 5836 5836 5836 5836 5837 5837 5838 5837 5838 5839 5839 5840 5840 5841 5842 5842 5842 5844 5845 5844 5844 5845 5847 5848 5847 5846 5847 5848 5849 5850 5851 5853 5856 5857 5859 5861 5864 5870 5872 5873 5877 5877 5878 5881 5883 5886 5888 5891 5894 5895 5896 5899 5899 5899 5900 5901 5902 5904 5904 5904 5905 5906 5907 5907 5908 5909 5908 5908 5910 5911 5911 5912 5913 5913 5914 5914 5915
5830 5830 5830 5830 5829 5828 5828 5828 5829 5830 5830 5831 5832 5832 5832 5832 5833 5833 5833 5832 5834 5836 5836 5836 5836 5837 5838 5838 5840 5841 5840 5840 5841 5842 5844 5844 5843 5844 5845 5846 5847 5848 5849 5851 5851 5853 5856 5859 5867 5870 5870 5873 5872 5874 5879 5881 5882 5886 5890 5893 5893 5894 5895 5896 5897 5898 5899 5900 5900 5900 5901 5902 5903 5904 5904 5905 5907 5906 5906 5908 5909 5910 5911 5911 5912 5912 5913 5913
5825 5824 5825 5824 5824 5823 5823 5823 5823 5824 5825 5826 5826 5826 5827 5828 5828 5828 5829 5827 5829 5832 5832 5832 5833 5833 5833 5834 5835 5836 5837 5837 5837 5838 5840 5841 5840 5841 5841 5843 5844 5844 5844 5847 5849 5850 5853 5856 5863 5867 5867 5868 5869 5872 5876 5878 5881 5884 5886 5888 5890 5892 5893 5894 5895 5895 5896 5896 5896 5897 5898 5898 5899 5902 5902 5902 5904 5904 5905 5907 5908 5909 5909 5910 5910 5911 5911 5911
5819 5819 5819 5819 5818 5818 5817 5818 5818 5818 5820 5820 5820 5821 5822 5823 5823 5823 5823 5822 5825 5828 5828 5828 5828 5828 5828 5829 5830 5831 5832 5834 5833 5834 5835 5836 5837 5837 5837 5839 5840 5841 5841 5844 5845 5845 5847 5852 5858 5862 5863 5864 5867 5870 5873 5875 5878 5881 5882 5883 5886 5889 5890 5892 5892 5892 5893 5893 5892 5894 5895 5894 5897 5900 5900 5900 5901 5902 5904 5905 5907 5908 5908 5908 5908 5909 5909 5909
5813 5813 5813 5813 5812 5812 5812 5812 5812 5812 5813 5813 5814 5815 5816 5816 5817 5818 5816 5817 5821 5823 5823 5823 5823 5824 5824 5824 5825 5826 5827 5828 5830 5831 5831 5832 5833 5833 5833 5834 5836 5837 5837 5839 5840 5839 5842 5847 5851 5855 5858 5860 5863 5867 5868 5871 5875 5877 5879 5881 5884 5886 5886 5887 5887 5888 5889 5888 5888 5891 5893 5892 5893 5897 5898 5897 5899 5901 5902 5904 5905 5905 5905 5906 5906 5907 5907 5907
5806 5806 5806 5806 5805 5805 5805 5805 5806 5806 5805 5806 5807 5808 5809 5810 5811 5811 5810 5813 5817 5817 5817 5817 5818 5819 5820 5819 5820 5821 5822 5823 5825 5827 5827 5828 5829 5829 5830 5830 5831 5832 5833 5835 5836 5835 5837 5841 5845 5850 5853 5856 5859 5862 5863 5866 5871 5874 5876 5879 5881 5881 5882 5882 5883 5883 5882 5882 5884 5888 5891 5889 5888 5893 5897 5896 5897 5899 5900 5901 5902 5902 5903 5903 5904 5905 5905 5905
5799 5799 5799 5799 5798 5798 5798 5798 5798 5799 5798 5800 5800 5801 5803 5803 5803 5804 5805 5809 5811 5811 5811 5812 5812 5814 5814 5814 5815 5816 5818 5818 5820 5822 5823 5823 5824 5825 5826 5826 5827 5828 5829 5831 5832 5832 5833 5836 5841 5845 5848 5851 5853 5856 5858 5862 5867 5870 5872 5874 5874 5876 5877 5877 5878 5877 5876 5877 5882 5886 5888 5885 5884 5890 5895 5894 5895 5897 5897 5898 5900 5901 5901 5901 5902 5903 5902 5902
5791 5791 5791 5792 5791 5790 5791 5791 5790 5790 5792 5793 5792 5794 5795 5794 5795 5798 5801 5803 5804 5805 5807 5807 5807 5807 5808 5809 5810 5811 5813 5813 5815 5816 5817 5819 5819 5820 5821 5822 5823 5824 5824 5825 5827 5828 5828 5830 5834 5838 5842 5845 5847 5849 5852 5856 5860 5863 5866 5867 5868 5871 5872 5872 5873 5873 5874 5876 5880 5883 5882 5881 5882 5887 5891 5893 5894 5895 5895 5896 5897 5898 5898 5899 5900 5900 5900 5901
5782 5782 5782 5783 5783 5782 5782 5782 5782 5782 5784 5784 5785 5786 5786 5785 5789 5793 5795 5796 5797 5799 5800 5801 5800 5800 5801 5803 5804 5806 5808 5807 5809 5810 5811 5813 5814 5815 5817 5817 5818 5820 5820 5820 5821 5823 5823 5824 5828 5833 5836 5839 5841 5844 5849 5853 5856 5858 5863 5865 5864 5866 5868 5870 5872 5873 5874 5877 5879 5879 5876 5876 5880 5884 5888 5891 5892 5892 5892 5894 5894 5895 5896 5897 5898 5899 5899 5899
5772 5773 5774 5774 5774 5774 5773 5773 5773 5773 5773 5775 5776 5776 5776 5779 5784 5786 5787 5789 5791 5792 5793 5793 5794 5793 5794 5797 5798 5800 5802 5802 5803 5805 5806 5807 5809 5811 5812 5812 5813 5815 5815 5815 5815 5817 5818 5820 5824 5828 5831 5834 5837 5841 5845 5849 5851 5855 5860 5860 5858 5862 5867 5870 5871 5873 5875 5876 5877 5874 5871 5873 5878 5881 5884 5887 5887 5888 5889 5890 5892 5893 5895 5896 5896 5897 5898 5898
5762 5763 5764 5764 5765 5765 5764 5764 5764 5763 5764 5765 5765 5766 5769 5774 5777 5777 5778 5781 5783 5785 5786 5786 5787 5787 5788 5791 5792 5794 5797 5796 5797 5799 5800 5802 5804 5805 5806 5807 5808 5809 5811 5811 5811 5812 5814 5816 5817 5820 5825 5829 5832 5836 5839 5842 5845 5851 5853 5852 5855 5862 5866 5867 5869 5870 5871 5871 5872 5871 5869 5871 5875 5876 5880 5883 5883 5884 5886 5888 5889 5890 5892 5894 5895 5896 5896 5897
5752 5752 5753 5754 5755 5755 5754 5754 5754 5753 5754 5754 5754 5758 5763 5766 5767 5767 5769 5773 5775 5777 5778 5779 5780 5781 5781 5784 5786 5787 5790 5791 5791 5793 5795 5796 5797 5799 5801 5802 5803 5804 5806 5806 5807 5807 5810 5811 5811 5814 5820 5823 5825 5831 5834 5837 5841 5844 5846 5850 5857 5859 5859 5862 5865 5865 5865 5865 5867 5868 5868 5869 5871 5873 5877 5879 5878 5880 5883 5885 5887 5887 5888 5890 5892 5894 5895 5895
5741 5741 5742 5743 5744 5744 5743 5743 5743 5743 5742 5742 5744 5751 5755 5755 5757 5759 5761 5765 5767 5768 5769 5770 5772 5773 5775 5778 5779 5779 5783 5785 5785 5787 5788 5789 5791 5793 5795 5796 5798 5799 5800 5802 5803 5802 5804 5807 5806 5809 5815 5817 5819 5824 5827 5830 5834 5839 5844 5849 5851 5849 5850 5854 5857 5859 5861 5860 5862 5865 5866 5866 5868 5871 5875 5876 5876 5879 5881 5883 5885 5885 5886 5888 5890 5892 5893 5893
5729 5729 5729 5731 5731 5731 5732 5732 5732 5731 5730 5731 5736 5741 5744 5745 5748 5751 5752 5755 5757 5757 5760 5762 5764 5766 5767 5771 5772 5772 5777 5779 5778 5780 5783 5783 5786 5787 5789 5790 5792 5794 5795 5797 5798 5797 5799 5803 5803 5802 5807 5812 5813 5815 5819 5822 5827 5835 5838 5840 5842 5844 5847 5849 5850 5852 5857 5858 5859 5862 5863 5863 5864 5867 5871 5872 5874 5876 5878 5881 5884 5884 5883 5885 5888 5890 5891 5891
5717 5716 5716 5718 5718 5717 5719 5719 5719 5719 5719 5722 5728 5730 5733 5735 5737 5740 5742 5745 5747 5748 5751 5753 5755 5757 5759 5763 5764 5765 5770 5772 5771 5774 5776 5777 5779 5781 5783 5785 5786 5788 5790 5790 5793 5793 5793 5797 5800 5798 5799 5804 5805 5807 5814 5819 5821 5826 5828 5829 5836 5840 5841 5844 5847 5849 5851 5853 5856 5858 5860 5861 5862 5863 5866 5869 5870 5872 5873 5875 5879 5880 5880 5882 5884 5886 5888 5888
5703 5702 5703 5706 5704 5704 5706 5706 5707 5708 5708 5713 5717 5718 5721 5724 5726 5730 5733 5735 5737 5738 5741 5743 5746 5749 5751 5754 5757 5758 5762 5765 5766 5768 5769 5771 5774 5776 5777 5779 5781 5782 5784 5785 5786 5788 5788 5791 5795 5795 5793 5797 5802 5805 5811 5815 5816 5820 5821 5824 5831 5834 5834 5839 5843 5845 5847 5848 5850 5855 5856 5859 5862 5860 5860 5864 5867 5869 5871 5872 5873 5875 5878 5879 5880 5882 5884 5885
5687 5687 5689 5692 5690 5690 5691 5692 5694 5696 5696 5701 5706 5707 5709 5712 5715 5719 5722 5724 5727 5729 5731 5733 5737 5740 5743 5746 5749 5751 5754 5757 5759 5761 5763 5765 5768 5769 5770 5773 5776 5777 5778 5780 5781 5783 5785 5785 5789 5791 5790 5794 5799 5802 5805 5808 5812 5815 5817 5821 5827 5828 5829 5834 5836 5839 5844 5844 5847 5851 5851 5855 5860 5856 5855 5860 5864 5866 5868 5869 5870 5871 5873 5875 5876 5877 5880 5882
5672 5673 5674 5676 5677 5676 5676 5678 5681 5682 5684 5689 5693 5694 5696 5700 5704 5708 5710 5713 5717 5719 5721 5724 5728 5732 5735 5738 5741 5744 5747 5750 5752 5754 5756 5758 5761 5763 5764 5767 5771 5772 5773 5775 5777 5778 5780 5780 5782 5787 5788 5790 5794 5797 5799 5802 5805 5808 5810 5815 5820 5821 5824 5831 5833 5835 5839 5840 5843 5846 5845 5849 5854 5851 5851 5857 5860 5862 5864 5865 5867 5869 5870 5871 5872 5874 5878 5879
5656 5658 5658 5659 5662 5662 5661 5664 5667 5667 5670 5675 5677 5679 5683 5687 5692 5696 5699 5703 5707 5710 5712 5715 5719 5723 5726 5729 5733 5736 5739 5742 5745 5747 5749 5752 5754 5756 5759 5762 5764 5766 5768 5770 5771 5772 5773 5775 5778 5782 5784 5785 5788 5791 5794 5794 5796 5800 5804 5807 5812 5816 5821 5826 5830 5830 5831 5834 5839 5839 5838 5843 5848 5847 5848 5854 5857 5860 5862 5863 5865 5867 5867 5869 5870 5872 5875 5876
5641 5643 5644 5643 5646 5648 5647 5650 5652 5653 5656 5660 5663 5668 5672 5675 5680 5685 5689 5692 5696 5699 5702 5705 5709 5713 5717 5721 5724 5728 5731 5734 5738 5740 5742 5745 5748 5750 5754 5756 5758 5760 5761 5762 5765 5767 5769 5771 5773 5775 5778 5780 5782 5785 5789 5790 5791 5796 5800 5801 5805 5811 5814 5819 5822 5821 5821 5827 5832 5831 5832 5840 5845 5843 5844 5850 5855 5857 5858 5860 5861 5863 5865 5867 5868 5870 5872 5873
5627 5629 5630 5629 5631 5634 5634 5636 5638 5639 5642 5645 5649 5656 5660 5663 5668 5672 5676 5681 5684 5688 5691 5695 5699 5703 5707 5711 5714 5719 5723 5727 5730 5733 5735 5739 5742 5744 5747 5750 5751 5753 5755 5758 5761 5764 5766 5767 5767 5769 5773 5776 5779 5782 5786 5788 5789 5791 5794 5797 5800 5804 5808 5812 5813 5812 5816 5822 5822 5822 5829 5837 5841 5840 5841 5845 5849 5852 5854 5856 5857 5858 5860 5863 5865 5867 5869 5869
5611 5614 5616 5615 5617 5619 5621 5622 5623 5625 5629 5632 5637 5643 5647 5650 5655 5659 5664 5669 5673 5677 5681 5685 5689 5693 5698 5703 5707 5711 5715 5719 5722 5725 5729 5733 5734 5736 5740 5743 5745 5748 5751 5755 5757 5759 5761 5762 5762 5765 5769 5772 5775 5778 5782 5783 5784 5786 5789 5792 5795 5798 5801 5805 5804 5805 5813 5817 5814 5817 5824 5828 5832 5837 5839 5840 5844 5848 5851 5852 5854 5855 5856 5858 5861 5863 5865 5866
5596 5600 5602 5603 5606 5607 5608 5610 5611 5612 5616 5620 5624 5630 5634 5637 5643 5647 5652 5657 5662 5667 5670 5674 5679 5684 5689 5694 5698 5702 5706 5710 5714 5717 5722 5725 5726 5729 5735 5738 5739 5743 5746 5749 5751 5754 5756 5757 5759 5762 5764 5767 5770 5773 5776 5778 5779 5782 5784 5786 5789 5791 5793 5797 5799 5802 5808 5808 5808 5815 5819 5819 5824 5831 5834 5836 5840 5843 5847 5848 5851 5852 5853 5854 5856 5859 5862 5863
5583 5587 5589 5590 5594 5597 5597 5598 5599 5601 5605 5608 5612 5618 5622 5625 5631 5635 5639 5644 5650 5654 5659 5664 5670 5675 5679 5684 5688 5693 5698 5701 5705 5709 5714 5717 5720 5724 5730 5732 5734 5738 5741 5743 5746 5749 5751 5753 5756 5758 5759 5761 5764 5767 5770 5773 5774 5776 5778 5781 5784 5786 5788 5791 5794 5798 5801 5802 5806 5813 5812 5811 5818 5824 5828 5834 5836 5838 5842 5845 5846 5847 5848 5849 5851 5854 5857 5859
5572 5574 5577 5578 5582 5586 5586 5587 5589 5592 5595 5598 5602 5607 5611 5614 5618 5621 5626 5632 5638 5644 5650 5655 5660 5664 5669 5674 5679 5684 5689 5692 5696 5701 5704 5709 5713 5718 5723 5726 5729 5733 5735 5738 5741 5744 5747 5749 5751 5753 5754 5755 5758 5762 5764 5767 5769 5770 5772 5775 5778 5781 5783 5785 5788 5792 5795 5797 5802 5806 5805 5805 5812 5819 5825 5829 5830 5833 5837 5839 5840 5843 5844 5845 5847 5850 5853 5855
5561 5563 5566 5568 5572 5575 5577 5577 5579 5582 5586 5590 5592 5596 5600 5603 5606 5610 5616 5623 5629 5634 5638 5642 5647 5651 5657 5663 5669 5674 5678 5682 5687 5691 5695 5701 5707 5711 5716 5719 5722 5725 5728 5732 5735 5738 5741 5743 5744 5747 5749 5750 5754 5757 5758 5761 5764 5765 5766 5769 5772 5775 5777 5780 5783 5786 5789 5791 5795 5798 5798 5800 5807 5814 5820 5824 5825 5828 5832 5833 5836 5839 5840 5841 5843 5846 5849 5851
5552 5554 5556 5559 5562 5566 5568 5569 5570 5573 5578 5581 5583 5587 5591 5593 5597 5603 5608 5613 5618 5621 5625 5631 5637 5643 5649 5655 5660 5663 5667 5673 5680 5684 5689 5695 5701 5705 5710 5714 5717 5720 5723 5726 5729 5733 5736 5738 5739 5741 5744 5746 5749 5752 5754 5757 5756 5756 5759 5764 5767 5769 5772 5774 5777 5780 5783 5786 5789 5791 5792 5796 5802 5808 5814 5818 5820 5823 5827 5829 5832 5834 5835 5837 5839 5843 5845 5846